Rockford, IL

3:17 AM CDT on May 21, 2018 (GMT -0500)
Greater Rockford

Weather History for KRFD - March, 2013

Change the Weather History Date:

Monday, March 11, 2013

  Actual Average Record
Temperature  
Mean Temperature 36 °F 35 °F  
Max Temperature 39 °F 45 °F 71 °F (1990)
Min Temperature 32 °F 26 °F -4 °F (1943)
Degree Days  
Heating Degree Days 29 30  
Month to date heating degree days 414 352  
Since 1 July heating degree days 5151 5354  
Cooling Degree Days 0 0  
Month to date cooling degree days 0 0  
Year to date cooling degree days 0 0  
Moisture  
Dew Point 33 °F    
Average Humidity 91    
Maximum Humidity 100    
Minimum Humidity 82    
Precipitation  
Precipitation 0.11 in 0.07 in 1.37 in (1962)
Month to date precipitation 1.96 0.72  
Year to date precipitation 8.03 3.50  
Snow  
Snow T in 0.20 in 5.00 in (1950)
Month to date snowfall 10.1 2.3  
Since 1 July snowfall 36.7 33.3  
Snow Depth 2.00 in    
Sea Level Pressure  
Sea Level Pressure 29.64 in    
Wind  
Wind Speed 8 mph (WNW)    
Max Wind Speed 23 mph    
Max Gust Speed 23 mph    
Visibility 4 miles    
Events Fog , Rain , Snow    
T = Trace of Precipitation, MM = Missing Value Source: NWS Daily Summary

Daily Weather History Graph

Daily Weather History Graph

Search for Another Location

Airport or City:

Astronomy

Mar. 11, 2013 Rise Set
Actual Time 7:14 AM CDT 6:58 PM CDT
Civil Twilight 6:46 AM CDT 7:26 PM CDT
Nautical Twilight 6:14 AM CDT 7:59 PM CDT
Astronomical Twilight 5:41 AM CDT 8:31 PM CDT
Moon 6:47 AM CDT (3/11) 7:11 PM CDT (3/11)
Length of Visible Light 12h 39m
Length of Day
11h 43m
Waning Crescent, 0% of the Moon is Illuminated
Mar 11
Waning Crescent
Mar 11
New
Mar 19
First Quarter
Mar 27
Full
Apr 2
Last Quarter

Hourly Weather History & Observations

Time (CDT) Temp. Windchill Dew Point Humidity Pressure Visibility Wind Dir Wind Speed Gust Speed Precip Events Conditions
12:54 AM 39.0 °F 33.4 °F 39.0 °F 100% 29.64 in 0.2 mi SSW 8.1 mph - N/A Fog Fog
1:54 AM 39.0 °F 35.7 °F 39.0 °F 100% 29.65 in 0.2 mi West 4.6 mph - 0.00 in Fog Heavy Drizzle
2:14 AM 37.4 °F 32.8 °F 37.4 °F 100% 29.64 in 0.5 mi West 5.8 mph - 0.00 in Fog Drizzle
2:36 AM 37.4 °F 32.1 °F 37.4 °F 100% 29.63 in 1.5 mi WSW 6.9 mph - 0.00 in   Overcast
2:54 AM 37.0 °F 32.4 °F 37.0 °F 100% 29.64 in 1.0 mi West 5.8 mph - 0.00 in   Overcast
3:54 AM 36.0 °F 33.3 °F 35.1 °F 97% 29.63 in 2.0 mi SE 3.5 mph - N/A   Overcast
3:56 AM 35.6 °F 32.8 °F 35.6 °F 100% 29.61 in 1.2 mi SE 3.5 mph - N/A   Overcast
4:36 AM 35.6 °F - 35.6 °F 100% 29.60 in 0.5 mi Calm Calm - N/A Fog Fog
4:54 AM 35.1 °F - 35.1 °F 100% 29.61 in 0.5 mi Calm Calm - N/A Fog Fog
5:40 AM 35.6 °F - 35.6 °F 100% 29.58 in 0.5 mi Calm Calm - N/A Fog Fog
5:54 AM 35.1 °F - 35.1 °F 100% 29.60 in 0.2 mi Calm Calm - N/A Fog Fog
6:12 AM 35.6 °F 32.8 °F 33.8 °F 93% 29.61 in 0.5 mi West 3.5 mph - N/A Fog Fog
6:51 AM 33.8 °F - 33.8 °F 100% 29.62 in 0.8 mi Calm Calm - 0.00 in Rain Light Rain
6:54 AM 34.0 °F - 34.0 °F 100% 29.63 in 0.8 mi Calm Calm - 0.00 in Rain Light Rain
7:11 AM 35.6 °F 31.7 °F 33.8 °F 93% 29.62 in 0.8 mi NW 4.6 mph - 0.02 in Rain Light Rain
7:16 AM 35.6 °F 30.7 °F 33.8 °F 93% 29.62 in 2.0 mi NW 5.8 mph - 0.02 in Rain Light Rain
7:39 AM 33.8 °F 29.6 °F 33.8 °F 100% 29.62 in 3.0 mi WNW 4.6 mph - 0.02 in Rain Light Rain
7:54 AM 34.0 °F - 34.0 °F 100% 29.64 in 3.0 mi Calm Calm - 0.03 in Rain Light Rain
7:57 AM 33.8 °F - 33.8 °F 100% 29.62 in 1.5 mi Calm Calm - 0.00 in Rain Light Rain
8:40 AM 33.8 °F 28.6 °F 33.8 °F 100% 29.63 in 1.5 mi NW 5.8 mph - 0.05 in Rain , Snow Light Rain
8:54 AM 33.1 °F 27.7 °F 33.1 °F 100% 29.64 in 2.0 mi NNW 5.8 mph - 0.05 in Rain , Snow Light Rain
8:58 AM 33.8 °F 28.6 °F 33.8 °F 100% 29.62 in 3.0 mi NNW 5.8 mph - 0.00 in Rain , Snow Light Rain
9:24 AM 33.8 °F 29.6 °F 33.8 °F 100% 29.60 in 3.0 mi North 4.6 mph - 0.01 in Snow Light Drizzle
9:54 AM 34.0 °F - 34.0 °F 100% 29.62 in 5.0 mi Calm Calm - 0.01 in Rain Light Rain
10:02 AM 35.6 °F - 33.8 °F 93% 29.60 in 7.0 mi Calm Calm - 0.00 in   Overcast
10:54 AM 34.0 °F 31.0 °F 34.0 °F 100% 29.62 in 6.0 mi West 3.5 mph - 0.00 in   Overcast
11:19 AM 33.8 °F 28.6 °F 33.8 °F 100% 29.59 in 1.5 mi WNW 5.8 mph - 0.00 in   Light Drizzle
11:54 AM 34.0 °F 28.8 °F 34.0 °F 100% 29.60 in 1.8 mi NNW 5.8 mph - 0.00 in   Light Drizzle
12:09 PM 33.8 °F 28.6 °F 33.8 °F 100% 29.58 in 2.0 mi Variable 5.8 mph - 0.01 in   Light Drizzle
12:31 PM 33.8 °F 27.0 °F 33.8 °F 100% 29.59 in 1.8 mi NW 8.1 mph - 0.01 in   Light Drizzle
12:54 PM 34.0 °F 26.6 °F 33.1 °F 96% 29.60 in 1.5 mi NW 9.2 mph - 0.01 in   Light Drizzle
1:04 PM 33.8 °F 26.4 °F 33.8 °F 100% 29.58 in 1.5 mi NW 9.2 mph - 0.00 in   Light Drizzle
1:18 PM 33.8 °F 27.7 °F 33.8 °F 100% 29.59 in 2.0 mi NW 6.9 mph - 0.01 in Snow Light Drizzle
1:23 PM 33.8 °F 27.0 °F 33.8 °F 100% 29.58 in 3.0 mi NW 8.1 mph - 0.01 in Snow Light Snow
1:46 PM 33.8 °F 27.0 °F 33.8 °F 100% 29.58 in 5.0 mi NW 8.1 mph - 0.01 in Snow Light Snow
1:54 PM 34.0 °F 27.2 °F 33.1 °F 96% 29.60 in 6.0 mi NW 8.1 mph - 0.01 in Snow Light Snow
2:54 PM 34.0 °F 24.2 °F 32.0 °F 92% 29.60 in 5.0 mi WNW 15.0 mph 19.6 mph 0.00 in Snow Light Drizzle
3:27 PM 33.8 °F 23.9 °F 30.2 °F 87% 29.59 in 9.0 mi WNW 15.0 mph 20.7 mph 0.00 in Snow Light Drizzle
3:54 PM 34.0 °F 25.0 °F 30.0 °F 85% 29.62 in 9.0 mi WNW 12.7 mph - 0.00 in Snow Light Snow
4:04 PM 33.8 °F 23.2 °F 30.2 °F 87% 29.61 in 9.0 mi WNW 17.3 mph - 0.00 in Snow Light Snow
4:32 PM 33.8 °F 23.5 °F 30.2 °F 87% 29.62 in 7.0 mi WNW 16.1 mph - 0.00 in Snow Light Snow
4:54 PM 33.1 °F 23.9 °F 30.0 °F 89% 29.66 in 7.0 mi WNW 12.7 mph 20.7 mph 0.00 in Snow Light Snow
5:22 PM 33.8 °F 25.3 °F 28.4 °F 81% 29.64 in 9.0 mi WNW 11.5 mph - 0.00 in Snow Light Snow
5:54 PM 33.8 °F 25.8 °F 28.4 °F 81% 29.66 in 9.0 mi West 10.4 mph - N/A Snow Light Snow
6:15 PM 33.8 °F 25.8 °F 28.4 °F 81% 29.67 in 9.0 mi West 10.4 mph - 0.00 in Snow Light Snow
6:54 PM 33.1 °F 23.9 °F 28.9 °F 85% 29.71 in 9.0 mi WNW 12.7 mph 20.7 mph 0.00 in Snow Light Snow
7:17 PM 33.8 °F 24.3 °F 28.4 °F 81% 29.70 in 9.0 mi West 13.8 mph - 0.00 in Snow Light Snow
7:54 PM 33.1 °F 23.9 °F 28.9 °F 85% 29.74 in 8.0 mi West 12.7 mph - 0.00 in Snow Light Snow
8:54 PM 33.1 °F 23.0 °F 28.9 °F 85% 29.76 in 9.0 mi WNW 15.0 mph 19.6 mph 0.00 in Snow Light Snow
9:54 PM 32.0 °F 20.8 °F 28.0 °F 85% 29.80 in 9.0 mi West 17.3 mph 24.2 mph 0.00 in Snow Light Drizzle
10:54 PM 32.0 °F 23.0 °F 28.0 °F 85% 29.82 in 9.0 mi West 11.5 mph - 0.00 in Snow Light Snow
11:54 PM 32.0 °F 22.1 °F 27.0 °F 82% 29.83 in 9.0 mi West 13.8 mph 21.9 mph 0.00 in Snow Light Snow